Tacoma, WA

6:40 PM PDT on July 21, 2017 (GMT -0700)
McChord Air Force Base

Weather History for KTCM - July, 2013

Change the Weather History Date:

Saturday, July 6, 2013

  Actual Average Record
Temperature  
Mean Temperature 64 °F -  
Max Temperature 77 °F 71 °F 91 °F (1960)
Min Temperature 50 °F 50 °F 44 °F (1996)
Degree Days  
Heating Degree Days 2    
Growing Degree Days 14 (Base 50)    
Moisture  
Dew Point 53 °F    
Average Humidity 78    
Maximum Humidity 100    
Minimum Humidity 44    
Precipitation  
Precipitation 0.00 in - - ()
Sea Level Pressure  
Sea Level Pressure 29.98 in    
Wind  
Wind Speed 2 mph (SW)    
Max Wind Speed 14 mph    
Max Gust Speed 21 mph    
Visibility 8 miles    
Events      
Averages and records for this station are not official NWS values.
T = Trace of Precipitation, MM = Missing Value Source: NWS Daily Summary

Daily Weather History Graph

Daily Weather History Graph

Search for Another Location

Airport or City:

Trip Planner

Search our weather history database for the weather conditions in past years. The results will help you decide how hot, cold, wet, or windy it might be!

Date:

Astronomy

Jul. 06, 2013 Rise Set
Actual Time 5:21 AM PDT 9:07 PM PDT
Civil Twilight 4:42 AM PDT 9:46 PM PDT
Nautical Twilight 3:49 AM PDT 10:39 PM PDT
Astronomical Twilight 2:33 AM PDT 11:54 PM PDT
Moon 4:16 AM PDT (7/6) 7:48 PM PDT (7/6)
Length of Visible Light 17h 03m
Length of Day
15h 45m
Waning Crescent, 2% of the Moon is Illuminated
Jul 6
Waning Crescent
Jul 8
New
Jul 15
First Quarter
Jul 22
Full
Jul 29
Last Quarter

Hourly Weather History & Observations

Time (PDT) Temp. Dew Point Humidity Pressure Visibility Wind Dir Wind Speed Gust Speed Precip Events Conditions
12:58 AM 57.2 °F 52.2 °F 83% 30.00 in 10.0 mi WSW 2.3 mph - N/A   Clear
1:58 AM 54.7 °F 51.8 °F 90% 30.01 in 10.0 mi ESE 1.2 mph - N/A   Clear
2:58 AM 53.1 °F 50.5 °F 91% 30.01 in 10.0 mi ENE 1.2 mph - N/A   Clear
3:38 AM 55.4 °F 51.8 °F 88% 29.99 in 2.0 mi Calm Calm - N/A   Clear
3:43 AM 55.4 °F 51.8 °F 88% 29.99 in 1.2 mi South 1.2 mph - N/A   Clear
3:48 AM 55.4 °F 51.8 °F 88% 29.99 in 1.8 mi SSW 1.2 mph - N/A   Clear
3:53 AM 55.4 °F 51.8 °F 88% 29.99 in 3.0 mi Calm Calm - N/A   Clear
3:58 AM 54.5 °F 52.0 °F 91% 30.00 in 1.2 mi South 1.2 mph - N/A   Clear
4:03 AM 53.6 °F 51.8 °F 94% 29.99 in 0.8 mi South 1.2 mph - N/A   Clear
4:08 AM 53.6 °F 51.8 °F 94% 29.99 in 1.0 mi Calm Calm - N/A   Clear
4:13 AM 53.6 °F 51.8 °F 94% 29.99 in 3.0 mi Calm Calm - N/A   Clear
4:58 AM 53.8 °F 51.8 °F 93% 30.00 in 10.0 mi SSW 1.2 mph - N/A   Clear
5:43 AM 50.0 °F 48.2 °F 94% 29.99 in 6.0 mi South 3.5 mph - N/A   Mostly Cloudy
5:58 AM 50.9 °F 49.8 °F 96% 30.01 in 10.0 mi SSW 2.3 mph - N/A   Overcast
6:02 AM 51.8 °F 50.0 °F 94% 29.99 in 10.0 mi South 3.5 mph - N/A   Overcast
6:47 AM 53.6 °F 51.8 °F 94% 30.00 in 10.0 mi SSW 3.5 mph - N/A   Overcast
6:58 AM 54.0 °F 52.0 °F 93% 30.01 in 10.0 mi SSW 3.5 mph - N/A   Overcast
7:23 AM 53.6 °F 53.6 °F 100% 30.00 in 10.0 mi SSW 3.5 mph - N/A   Overcast
7:58 AM 54.9 °F 53.2 °F 94% 30.01 in 10.0 mi SSW 4.6 mph - N/A   Overcast
8:43 AM 55.4 °F 53.6 °F 94% 30.00 in 10.0 mi Variable 2.3 mph - N/A   Overcast
8:58 AM 56.5 °F 53.4 °F 89% 30.01 in 10.0 mi Variable 1.2 mph - N/A   Overcast
9:03 AM 57.2 °F 53.6 °F 88% 30.00 in 10.0 mi SSW 2.3 mph - N/A   Overcast
9:13 AM 57.2 °F 53.6 °F 88% 30.00 in 10.0 mi Calm Calm - N/A   Overcast
9:43 AM 59.0 °F 53.6 °F 82% 30.00 in 10.0 mi West 2.3 mph - N/A   Overcast
9:58 AM 59.4 °F 54.0 °F 82% 30.00 in 10.0 mi Variable 1.2 mph - N/A   Overcast
10:58 AM 63.9 °F 54.7 °F 72% 29.99 in 10.0 mi Variable 2.3 mph - N/A   Mostly Cloudy
11:28 AM 66.2 °F 55.4 °F 68% 29.98 in 10.0 mi Variable 4.6 mph - N/A   Mostly Cloudy
11:58 AM 68.0 °F 55.2 °F 64% 29.98 in 10.0 mi Variable 2.3 mph - N/A   Scattered Clouds
12:58 PM 70.7 °F 53.2 °F 54% 29.98 in 10.0 mi North 11.5 mph - N/A   Partly Cloudy
1:58 PM 73.2 °F 52.9 °F 49% 29.96 in 10.0 mi North 13.8 mph - N/A   Clear
2:58 PM 74.8 °F 52.0 °F 45% 29.95 in 10.0 mi North 10.4 mph 20.7 mph N/A   Clear
3:58 PM 76.3 °F 52.9 °F 44% 29.93 in 10.0 mi NW 4.6 mph - N/A   Clear
4:58 PM 76.5 °F 56.3 °F 50% 29.91 in 10.0 mi NNW 3.5 mph - N/A   Clear
5:58 PM 76.5 °F 56.3 °F 50% 29.90 in 10.0 mi Variable 2.3 mph - N/A   Clear
6:58 PM 77.0 °F 55.6 °F 47% 29.90 in 10.0 mi NNE 3.5 mph - N/A   Clear
7:58 PM 75.7 °F 54.9 °F 48% 29.90 in 10.0 mi NNE 3.5 mph - N/A   Clear
8:58 PM 71.1 °F 53.8 °F 54% 29.90 in 10.0 mi NE 3.5 mph - N/A   Clear
9:58 PM 69.8 °F 55.0 °F 59% 29.92 in 10.0 mi Variable 1.2 mph - N/A   Clear
10:58 PM 67.1 °F 56.1 °F 68% 29.92 in 10.0 mi NW 3.5 mph - N/A   Clear
11:58 PM 64.6 °F 56.7 °F 75% 29.93 in 10.0 mi West 2.3 mph - N/A   Clear